Cas;Teplota [C];Tlak [hPa];Svetlo [lux];Rychlost vetru [km/h];Smer vetru [stupne]
2022-05-23 00:00:01;12,12;1010,13;7;0;0
2022-05-23 00:01:01;12;1010,17;7;0;0
2022-05-23 00:02:01;12,19;1010,17;8;0;0
2022-05-23 00:03:02;12;1010,16;7;0;0
2022-05-23 00:04:01;11,96;1010,16;7;0;0
2022-05-23 00:05:02;11,87;1010,06;7;0;0
2022-05-23 00:06:01;12,06;1010,07;7;0;0
2022-05-23 00:07:01;12,1;1010,1;8;0;0
2022-05-23 00:08:01;11,94;1010,06;7;0;0
2022-05-23 00:09:01;12,04;1010,18;8;0;0
2022-05-23 00:10:01;11,93;1010,12;7;0;0
2022-05-23 00:11:01;11,94;1010,17;7;0;0
2022-05-23 00:12:01;11,84;1010,15;7;0;0
2022-05-23 00:13:01;11,87;1010,21;8;0;0
2022-05-23 00:14:01;11,84;1010,15;7;0;0
2022-05-23 00:15:01;11,82;1010,14;7;0;0
2022-05-23 00:16:01;11,95;1010,21;7;0;0
2022-05-23 00:17:01;11,86;1010,22;7;0;0
2022-05-23 00:18:01;11,81;1010,31;7;0;0
2022-05-23 00:19:01;11,74;1010,32;7;0;0
2022-05-23 00:20:01;11,78;1010,36;8;0;0
2022-05-23 00:21:01;12,03;1010,28;7;0;0
2022-05-23 00:22:01;11,98;1010,23;8;0;0
2022-05-23 00:23:01;11,9;1010,27;7;0;0
2022-05-23 00:24:01;11,97;1010,32;7;0;0
2022-05-23 00:25:02;12,07;1010,35;7;0;0
2022-05-23 00:26:02;12,1;1010,28;7;0;0
2022-05-23 00:27:01;12,14;1010,28;7;0;0
2022-05-23 00:28:01;12,05;1010,33;7;0;0
2022-05-23 00:29:01;12,11;1010,39;7;0;0
2022-05-23 00:30:01;12,23;1010,43;8;0;0
2022-05-23 00:31:01;12,14;1010,37;7;0;0
2022-05-23 00:32:01;12,05;1010,33;7;0;0
2022-05-23 00:33:01;12,23;1010,33;7;0;0
2022-05-23 00:34:01;12,01;1010,43;7;0;0
2022-05-23 00:35:01;12,07;1010,46;7;0;0
2022-05-23 00:36:01;12,06;1010,47;8;0;0
2022-05-23 00:37:01;12,11;1010,43;8;0;0
2022-05-23 00:38:01;12,07;1010,44;7;0;0
2022-05-23 00:39:02;12,14;1010,47;7;0;0
2022-05-23 00:40:01;12,19;1010,48;7;0;0
2022-05-23 00:41:01;12,17;1010,47;7;0;0
2022-05-23 00:42:01;12,06;1010,36;6;0;0
2022-05-23 00:43:01;12,19;1010,43;6;0;0
2022-05-23 00:44:01;12,27;1010,49;7;0;0
2022-05-23 00:45:01;12,02;1010,45;7;0;0
2022-05-23 00:46:01;12,09;1010,46;7;0;0
2022-05-23 00:47:01;12,17;1010,4;6;0;0
2022-05-23 00:48:01;12,05;1010,39;6;0;0
2022-05-23 00:49:01;12,01;1010,39;6;0;0
2022-05-23 00:50:01;12,11;1010,43;6;0;0
2022-05-23 00:51:02;12;1010,48;8;0;0
2022-05-23 00:52:01;11,96;1010,41;7;0;0
2022-05-23 00:53:01;12,1;1010,43;6;0;0
2022-05-23 00:54:01;12,07;1010,46;6;0;0
2022-05-23 00:55:02;12,01;1010,48;7;0;0
2022-05-23 00:56:01;12,1;1010,43;7;0;0
2022-05-23 00:57:01;12,06;1010,47;7;0;0
2022-05-23 00:58:01;12,22;1010,47;7;0;0
2022-05-23 00:59:02;12,03;1010,52;7;0;0
2022-05-23 01:00:01;12;1010,5;7;0;0
2022-05-23 01:01:01;11,94;1010,52;7;0;0
2022-05-23 01:02:01;12;1010,5;7;0;0
2022-05-23 01:03:01;11,94;1010,56;6;0;0
2022-05-23 01:04:01;12,09;1010,47;7;0;0
2022-05-23 01:05:01;11,95;1010,44;7;0;0
2022-05-23 01:06:01;11,92;1010,46;7;0;0
2022-05-23 01:07:01;11,94;1010,55;7;0;0
2022-05-23 01:08:01;12,03;1010,56;7;0;0
2022-05-23 01:09:01;12,08;1010,58;7;0;0
2022-05-23 01:10:01;11,82;1010,54;7;0;0
2022-05-23 01:11:01;11,87;1010,55;7;0;0
2022-05-23 01:12:01;11,84;1010,55;6;0;0
2022-05-23 01:13:01;11,9;1010,52;7;0;0
2022-05-23 01:14:01;11,93;1010,52;7;0;0
2022-05-23 01:15:01;11,81;1010,53;6;0;0
2022-05-23 01:16:01;11,79;1010,52;7;0;0
2022-05-23 01:17:01;11,79;1010,55;7;0;0
2022-05-23 01:18:01;11,91;1010,55;7;0;0
2022-05-23 01:19:02;12,01;1010,62;7;0;0
2022-05-23 01:20:01;11,94;1010,64;7;0;0
2022-05-23 01:21:01;11,86;1010,55;6;0;0
2022-05-23 01:22:01;11,98;1010,57;6;0;0
2022-05-23 01:23:01;11,92;1010,61;7;0;0
2022-05-23 01:24:01;11,97;1010,49;7;0;0
2022-05-23 01:25:02;11,78;1010,56;6;0;0
2022-05-23 01:26:01;11,84;1010,53;5;0;0
2022-05-23 01:27:01;11,92;1010,55;6;0;0
2022-05-23 01:28:01;11,74;1010,51;7;0;0
2022-05-23 01:29:02;11,84;1010,54;6;0;0
2022-05-23 01:30:01;11,74;1010,51;6;0;0
2022-05-23 01:31:02;11,85;1010,52;6;0;0
2022-05-23 01:32:01;11,83;1010,56;6;0;0
2022-05-23 01:33:01;11,87;1010,52;7;0;0
2022-05-23 01:34:01;11,88;1010,51;7;0;0
2022-05-23 01:35:01;11,92;1010,5;7;0;0
2022-05-23 01:36:01;11,77;1010,51;7;0;0
2022-05-23 01:37:01;11,79;1010,53;6;0;0
2022-05-23 01:38:01;11,83;1010,52;6;0;0
2022-05-23 01:39:01;11,74;1010,51;7;0;0
2022-05-23 01:40:01;11,66;1010,48;7;0;0
2022-05-23 01:41:01;11,7;1010,47;7;0;0
2022-05-23 01:42:01;11,78;1010,41;6;0;0
2022-05-23 01:43:01;11,75;1010,49;6;0;0
2022-05-23 01:44:01;11,88;1010,42;6;0;0
2022-05-23 01:45:01;11,75;1010,41;6;0;0
2022-05-23 01:46:01;11,83;1010,5;7;0;0
2022-05-23 01:47:01;11,82;1010,46;6;0;0
2022-05-23 01:48:01;11,67;1010,53;6;0;0
2022-05-23 01:49:01;11,77;1010,52;7;0;0
2022-05-23 01:50:01;11,73;1010,52;6;0;0
2022-05-23 01:51:01;11,72;1010,49;6;0;0
2022-05-23 01:52:02;11,63;1010,49;7;0;0
2022-05-23 01:53:01;11,44;1010,52;6;0;0
2022-05-23 01:54:01;11,55;1010,5;6;0;0
2022-05-23 01:55:01;11,83;1010,52;6;0;0
2022-05-23 01:56:01;11,77;1010,55;7;0;0
2022-05-23 01:57:01;11,6;1010,48;6;0;0
2022-05-23 01:58:01;11,63;1010,46;6;0;0
2022-05-23 01:59:01;11,44;1010,47;6;0;0
2022-05-23 02:00:02;11,58;1010,54;7;0;0
2022-05-23 02:01:01;11,54;1010,43;6;0;0
2022-05-23 02:02:01;11,48;1010,44;6;0;0
2022-05-23 02:03:01;11,54;1010,46;6;0;0
2022-05-23 02:04:01;11,49;1010,47;6;0;0
2022-05-23 02:05:01;11,36;1010,43;7;0;0
2022-05-23 02:06:02;11,56;1010,35;6;0;0
2022-05-23 02:07:01;11,51;1010,41;6;0;0
2022-05-23 02:08:01;11,44;1010,32;7;0;0
2022-05-23 02:09:01;11,21;1010,28;6;0;0
2022-05-23 02:10:02;11,27;1010,37;6;0;0
2022-05-23 02:11:01;11,37;1010,35;6;0;0
2022-05-23 02:12:01;11,21;1010,33;6;0;0
2022-05-23 02:13:01;11,28;1010,4;7;0;0
2022-05-23 02:14:01;11,41;1010,29;7;0;0
2022-05-23 02:15:01;11,24;1010,21;7;0;0
2022-05-23 02:16:01;11,25;1010,27;6;0;0
2022-05-23 02:17:01;11,02;1010,24;6;0;0
2022-05-23 02:18:01;11,22;1010,26;6;0;0
2022-05-23 02:19:02;11,26;1010,21;6;0;0
2022-05-23 02:20:01;11,22;1010,32;6;0;0
2022-05-23 02:21:01;11,26;1010,33;6;0;0
2022-05-23 02:22:01;11,28;1010,3;6;0;0
2022-05-23 02:23:01;11,19;1010,33;7;0;0
2022-05-23 02:24:01;11,3;1010,32;7;0;0
2022-05-23 02:25:01;11,02;1010,23;7;0;0
2022-05-23 02:26:01;11,18;1010,18;6;0;0
2022-05-23 02:27:01;11,08;1010,17;5;0;0
2022-05-23 02:28:01;11,18;1010,18;7;0;0
2022-05-23 02:29:01;11,28;1010,16;7;0;0
2022-05-23 02:30:01;11,16;1010,17;7;0;0
2022-05-23 02:31:01;11,1;1010,08;6;0;0
2022-05-23 02:32:01;11,2;1010,02;6;0;0
2022-05-23 02:33:01;11,02;1010,01;6;0;0
2022-05-23 02:34:01;10,89;1010,03;6;0;0
2022-05-23 02:35:01;11,07;1009,94;6;0;0
2022-05-23 02:36:01;11,01;1010;6;0;0
2022-05-23 02:37:01;11,08;1010,01;6;0;0
2022-05-23 02:38:01;10,83;1009,99;6;0;0
2022-05-23 02:39:02;10,96;1009,95;6;0;0
2022-05-23 02:40:01;10,88;1009,91;6;0;0
2022-05-23 02:41:01;10,88;1009,9;6;0;0
2022-05-23 02:42:01;10,89;1009,89;6;0;0
2022-05-23 02:43:01;10,75;1009,93;6;0;0
2022-05-23 02:44:01;10,71;1009,89;6;0;0
2022-05-23 02:45:01;10,87;1009,88;6;0;0
2022-05-23 02:46:01;10,84;1009,88;6;0;0
2022-05-23 02:47:01;10,76;1009,84;6;0;0
2022-05-23 02:48:01;10,69;1009,84;6;0;0
2022-05-23 02:49:01;10,83;1009,87;6;0;0
2022-05-23 02:50:01;10,68;1009,87;6;0;0
2022-05-23 02:51:01;10,99;1009,89;6;0;0
2022-05-23 02:52:01;10,84;1009,88;6;0;0
2022-05-23 02:53:02;10,9;1009,9;6;0;0
2022-05-23 02:54:01;10,84;1009,92;6;0;0
2022-05-23 02:55:01;10,81;1009,88;6;0;0
2022-05-23 02:56:01;10,93;1009,88;6;0;0
2022-05-23 02:57:01;10,94;1009,92;6;0;0
2022-05-23 02:58:01;10,95;1009,86;6;0;0
2022-05-23 02:59:01;10,84;1009,87;6;0;0
2022-05-23 03:00:01;11,03;1009,85;6;0;0
2022-05-23 03:01:01;11,2;1009,85;6;0;0
2022-05-23 03:02:02;10,96;1009,84;5;0;0
2022-05-23 03:03:01;11,05;1009,86;6;0;0
2022-05-23 03:04:01;10,83;1009,85;6;0;0
2022-05-23 03:05:01;10,93;1009,82;7;0;0
2022-05-23 03:06:01;11,02;1009,83;6;0;0
2022-05-23 03:07:01;10,9;1009,82;7;0;0
2022-05-23 03:08:01;11;1009,83;6;0;0
2022-05-23 03:09:01;10,84;1009,83;6;0;0
2022-05-23 03:10:01;10,78;1009,84;5;0;0
2022-05-23 03:11:01;10,87;1009,85;6;0;0
2022-05-23 03:12:01;10,61;1009,83;6;0;0
2022-05-23 03:13:01;10,68;1009,83;6;0;0
2022-05-23 03:14:01;10,7;1009,88;5;0;0
2022-05-23 03:15:01;10,57;1009,86;6;0;0
2022-05-23 03:16:01;10,64;1009,87;6;0;0
2022-05-23 03:17:01;10,39;1009,85;6;0;0
2022-05-23 03:18:01;10,63;1009,87;6;0;0
2022-05-23 03:19:01;10,51;1009,87;6;0;0
2022-05-23 03:20:02;10,72;1009,84;6;0;0
2022-05-23 03:21:01;10,53;1009,84;6;0;0
2022-05-23 03:22:01;10,65;1009,83;6;0;0
2022-05-23 03:23:01;10,48;1009,82;6;0;0
2022-05-23 03:24:01;10,29;1009,86;6;0;0
2022-05-23 03:25:01;10,58;1009,84;6;0;0
2022-05-23 03:26:01;10,45;1009,83;6;0;0
2022-05-23 03:27:01;10,41;1009,84;6;0;0
2022-05-23 03:28:01;10,47;1009,83;6;0;0
2022-05-23 03:29:01;10,7;1009,82;6;0;0
2022-05-23 03:30:01;10,43;1009,82;5;0;0
2022-05-23 03:31:01;10,48;1009,81;5;0;0
2022-05-23 03:32:01;10,65;1009,85;6;0;0
2022-05-23 03:33:01;10,53;1009,85;6;0;0
2022-05-23 03:34:01;10,38;1009,84;5;0;0
2022-05-23 03:35:01;10,47;1009,84;6;0;0
2022-05-23 03:36:01;10,42;1009,83;5;0;0
2022-05-23 03:37:01;10,38;1009,82;6;0;0
2022-05-23 03:38:01;10,29;1009,83;6;0;0
2022-05-23 03:39:01;10,34;1009,81;6;0;0
2022-05-23 03:40:02;10,21;1009,8;5;0;0
2022-05-23 03:41:01;10,2;1009,8;5;0;0
2022-05-23 03:42:01;10,13;1009,79;5;0;0
2022-05-23 03:43:01;10,12;1009,81;6;0;0
2022-05-23 03:44:01;10,15;1009,78;6;0;0
2022-05-23 03:45:01;10,08;1009,79;5;0;0
2022-05-23 03:46:01;10,14;1009,73;5;0;0
2022-05-23 03:47:01;10,1;1009,79;6;0;0
2022-05-23 03:48:01;10,16;1009,76;7;0;0
2022-05-23 03:49:01;10,11;1009,76;6;0;0
2022-05-23 03:50:01;10,3;1009,79;5;0;0
2022-05-23 03:51:01;10,15;1009,77;6;0;0
2022-05-23 03:52:01;9,9;1009,76;6;0;0
2022-05-23 03:53:01;9,99;1009,75;6;0;0
2022-05-23 03:54:02;9,95;1009,78;6;0;0
2022-05-23 03:55:01;9,96;1009,78;6;0;0
2022-05-23 03:56:01;9,98;1009,79;5;0;0
2022-05-23 03:57:02;9,99;1009,8;7;0;0
2022-05-23 03:58:01;10,04;1009,81;6;0;0
2022-05-23 03:59:01;9,74;1009,79;6;0;0
2022-05-23 04:00:01;9,7;1009,78;6;0;0
2022-05-23 04:01:01;9,7;1009,79;6;0;0
2022-05-23 04:02:01;9,64;1009,79;6;0;0
2022-05-23 04:03:01;9,7;1009,81;6;0;0
2022-05-23 04:04:01;9,48;1009,79;6;0;0
2022-05-23 04:05:01;9,46;1009,83;6;0;0
2022-05-23 04:06:01;9,39;1009,82;6;0;0
2022-05-23 04:07:01;9,44;1009,87;5;0;0
2022-05-23 04:08:01;9,3;1009,85;5;0;0
2022-05-23 04:09:01;9,36;1009,84;6;0;0
2022-05-23 04:10:01;9,26;1009,86;6;0;0
2022-05-23 04:11:01;9,52;1009,89;6;0;0
2022-05-23 04:12:01;9,37;1009,88;6;0;0
2022-05-23 04:13:01;9,33;1009,87;7;0;0
2022-05-23 04:14:01;9,29;1009,88;7;0;0
2022-05-23 04:15:01;9,45;1009,88;7;0;0
2022-05-23 04:16:01;9,48;1009,9;7;0;0
2022-05-23 04:17:01;9,31;1009,88;7;0;0
2022-05-23 04:18:01;9,31;1009,87;7;0;0
2022-05-23 04:19:02;9,48;1009,86;7;0;0
2022-05-23 04:20:01;9,2;1009,93;7;0;0
2022-05-23 04:21:02;9,2;1009,9;8;0;0
2022-05-23 04:22:01;9,29;1009,91;8;0;0
2022-05-23 04:23:01;9,23;1009,93;8;0;0
2022-05-23 04:24:01;9,32;1009,9;9;0;0
2022-05-23 04:25:01;9,21;1009,89;9;0;0
2022-05-23 04:26:01;9,16;1009,98;9;0;0
2022-05-23 04:27:01;9,25;1010,01;10;0;0
2022-05-23 04:28:02;9,28;1010,18;11;0;0
2022-05-23 04:29:01;9,26;1010,25;13;0;0
2022-05-23 04:30:01;9,1;1010,33;14;0;0
2022-05-23 04:31:01;9,14;1010,32;15;0;0
2022-05-23 04:32:01;8,97;1010,38;17;0;0
2022-05-23 04:33:02;8,97;1010,36;18;0;0
2022-05-23 04:34:01;9,07;1010,4;20;0;0
2022-05-23 04:35:01;9,04;1010,38;23;0;0
2022-05-23 04:36:01;9,02;1010,33;26;0;0
2022-05-23 04:37:01;8,95;1010,34;30;0;0
2022-05-23 04:38:01;8,88;1010,27;34;0;0
2022-05-23 04:39:02;8,78;1010,33;38;0;0
2022-05-23 04:40:01;9,08;1010,36;45;0;0
2022-05-23 04:41:01;8,85;1010,44;51;0;0
2022-05-23 04:42:01;8,86;1010,41;60;0;0
2022-05-23 04:43:01;8,88;1010,43;73;0;0
2022-05-23 04:44:01;8,87;1010,44;83;0;0
2022-05-23 04:45:01;8,73;1010,4;96;0;0
2022-05-23 04:46:01;8,9;1010,29;110;0;0
2022-05-23 04:47:01;8,85;1010,35;125;0;0
2022-05-23 04:48:01;8,76;1010,25;140;0;0
2022-05-23 04:49:01;8,99;1010,16;156;0;0
2022-05-23 04:50:01;8,67;1010,3;171;0;0
2022-05-23 04:51:01;8,72;1010,32;188;0;0
2022-05-23 04:52:01;8,5;1010,19;204;0;0
2022-05-23 04:53:01;8,61;1010,2;223;0;0
2022-05-23 04:54:01;8,64;1010,23;241;0;0
2022-05-23 04:55:01;8,55;1010,14;257;0;0
2022-05-23 04:56:01;8,68;1010,07;273;0;0
2022-05-23 04:57:01;8,63;1010,07;290;0;0
2022-05-23 04:58:01;8,65;1009,94;310;0;0
2022-05-23 04:59:02;8,4;1009,92;331;0;0
2022-05-23 05:00:01;8,43;1009,87;357;0;0
2022-05-23 05:01:01;8,62;1009,88;390;0;0
2022-05-23 05:02:01;8,64;1009,92;431;0;0
2022-05-23 05:03:01;8,49;1009,89;474;0;0
2022-05-23 05:04:02;8,57;1009,91;516;0;0
2022-05-23 05:05:01;8,62;1009,98;550;0;0
2022-05-23 05:06:01;8,42;1009,89;576;0;0
2022-05-23 05:07:01;8,43;1009,9;595;0;0
2022-05-23 05:08:01;8,27;1009,96;611;0;0
2022-05-23 05:09:02;8,2;1009,93;623;0;0
2022-05-23 05:10:01;8,38;1010;636;0;0
2022-05-23 05:11:02;8,41;1010,06;648;0;0
2022-05-23 05:12:01;8,39;1009,98;660;0;0
2022-05-23 05:13:01;8,41;1009,93;671;0;0
2022-05-23 05:14:01;8,48;1009,91;687;0;0
2022-05-23 05:15:02;8,21;1009,92;704;0;0
2022-05-23 05:16:01;8,46;1009,94;726;0;0
2022-05-23 05:17:01;8,19;1009,94;748;0;0
2022-05-23 05:18:01;8,45;1009,93;771;0;0
2022-05-23 05:19:01;8,44;1009,95;790;0;0
2022-05-23 05:20:01;8,22;1009,95;807;0;0
2022-05-23 05:21:01;8,28;1009,97;826;0;0
2022-05-23 05:22:01;8,31;1009,91;849;0;0
2022-05-23 05:23:01;8,38;1009,92;875;0;0
2022-05-23 05:24:01;8,31;1009,94;897;0;0
2022-05-23 05:25:01;8,31;1009,89;914;0;0
2022-05-23 05:26:01;8,33;1009,89;932;0;0
2022-05-23 05:27:01;8,29;1009,9;954;0;0
2022-05-23 05:28:01;8,32;1009,89;975;0;0
2022-05-23 05:29:01;8,28;1009,92;994;0;0
2022-05-23 05:30:01;8,2;1009,92;1006;0;0
2022-05-23 05:31:02;8,16;1009,97;1017;0;0
2022-05-23 05:32:01;8,3;1010,02;1024;0;0
2022-05-23 05:33:01;8,23;1010,01;1033;0;0
2022-05-23 05:34:01;8,18;1009,97;1045;0;0
2022-05-23 05:35:01;8,17;1010;1053;0;0
2022-05-23 05:36:01;8,26;1009,99;1056;0;0
2022-05-23 05:37:01;8,15;1009,95;1062;0;0
2022-05-23 05:38:01;8,02;1010,01;1069;0;0
2022-05-23 05:39:01;8,22;1009,96;1078;0;0
2022-05-23 05:40:01;8,2;1010;1090;0;0
2022-05-23 05:41:01;8,07;1009,99;1104;0;0
2022-05-23 05:42:01;8,07;1009,98;1117;0;0
2022-05-23 05:43:01;8,29;1009,92;1129;0;0
2022-05-23 05:44:01;8,12;1009,89;1139;0;0
2022-05-23 05:45:01;8,16;1009,84;1149;0;0
2022-05-23 05:46:01;8,15;1009,84;1160;0;0
2022-05-23 05:47:01;8,17;1009,83;1173;0;0
2022-05-23 05:48:01;8,33;1009,82;1185;0;0
2022-05-23 05:49:01;8,26;1009,81;1200;0;0
2022-05-23 05:50:02;8,15;1009,81;1216;0;0
2022-05-23 05:51:01;8,32;1009,81;1234;0;0
2022-05-23 05:52:01;8,31;1009,85;1252;0;0
2022-05-23 05:53:01;8,2;1009,85;1269;0;0
2022-05-23 05:54:01;8,38;1009,85;1282;0;0
2022-05-23 05:55:01;8,27;1009,84;1290;0;0
2022-05-23 05:56:01;8,18;1009,83;1300;0;0
2022-05-23 05:57:01;8,35;1009,82;1316;0;0
2022-05-23 05:58:01;8,16;1009,83;1343;0;0
2022-05-23 05:59:01;8,17;1009,81;1375;0;0
2022-05-23 06:00:01;8,33;1009,81;1410;0;0
2022-05-23 06:01:01;8,37;1009,81;1442;0;0
2022-05-23 06:02:01;8,25;1009,81;1481;0;0
2022-05-23 06:03:01;8,33;1009,81;1530;0;0
2022-05-23 06:04:01;8,39;1009,81;1581;0;0
2022-05-23 06:05:01;8,34;1009,8;1623;0;0
2022-05-23 06:06:01;8,54;1009,81;1657;0;0
2022-05-23 06:07:01;8,37;1009,81;1692;0;0
2022-05-23 06:08:01;8,73;1009,81;1724;0;0
2022-05-23 06:09:01;8,63;1009,85;1756;0;0
2022-05-23 06:10:02;8,74;1009,83;1782;0;0
2022-05-23 06:11:01;8,77;1009,83;1805;0;0
2022-05-23 06:12:01;8,96;1009,85;1830;0;0
2022-05-23 06:13:01;9,08;1009,87;1858;0;0
2022-05-23 06:14:01;9,07;1009,86;1881;0;0
2022-05-23 06:15:01;9,08;1009,89;1895;0;0
2022-05-23 06:16:01;9,13;1009,97;1904;0;0
2022-05-23 06:17:01;9,16;1010,05;1909;0;0
2022-05-23 06:18:01;9,3;1010,17;1911;0;0
2022-05-23 06:19:01;9,22;1010,17;1911;0;0
2022-05-23 06:20:01;9,35;1010,19;1917;0;0
2022-05-23 06:21:01;9,27;1010,23;1922;0;0
2022-05-23 06:22:01;9,42;1010,26;1925;0;0
2022-05-23 06:23:01;9,5;1010,22;1926;0;0
2022-05-23 06:24:01;9,62;1010,35;1926;0;0
2022-05-23 06:25:02;9,59;1010,36;1921;0;0
2022-05-23 06:26:01;9,48;1010,37;1918;0;0
2022-05-23 06:27:02;9,79;1010,46;1910;0;0
2022-05-23 06:28:01;9,7;1010,41;1896;0;0
2022-05-23 06:29:01;9,82;1010,38;1880;0;0
2022-05-23 06:30:01;9,83;1010,41;1863;0;0
2022-05-23 06:31:01;9,79;1010,43;1847;0;0
2022-05-23 06:32:01;9,95;1010,44;1842;0;0
2022-05-23 06:33:02;9,82;1010,36;1846;0;0
2022-05-23 06:34:01;9,88;1010,42;1845;0;0
2022-05-23 06:35:01;9,94;1010,35;1842;0;0
2022-05-23 06:36:01;10,3;1010,36;1840;0;0
2022-05-23 06:37:01;10,17;1010,4;1835;0;0
2022-05-23 06:38:02;10,19;1010,42;1824;0;0
2022-05-23 06:39:01;10,38;1010,38;1807;0;0
2022-05-23 06:40:01;10,35;1010,38;1798;0;0
2022-05-23 06:41:02;10,51;1010,47;1819;0;0
2022-05-23 06:42:01;10,7;1010,47;1829;0;0
2022-05-23 06:43:01;10,66;1010,52;1835;0;0
2022-05-23 06:44:01;10,62;1010,55;1835;0;0
2022-05-23 06:45:02;10,77;1010,49;1845;0;0
2022-05-23 06:46:01;10,86;1010,52;1841;0;0
2022-05-23 06:47:02;11,13;1010,58;1835;0;0
2022-05-23 06:48:01;11,39;1010,48;1799;0;0
2022-05-23 06:49:01;11,39;1010,54;1778;0;0
2022-05-23 06:50:01;11,47;1010,53;1773;0;0
2022-05-23 06:51:01;11,46;1010,57;1789;0;0
2022-05-23 06:52:01;11,59;1010,54;1803;0;0
2022-05-23 06:53:02;11,64;1010,51;1817;0;0
2022-05-23 06:54:01;11,61;1010,52;1825;0;0
2022-05-23 06:55:01;11,65;1010,48;1825;0;0
2022-05-23 06:56:01;11,77;1010,43;1834;0;0
2022-05-23 06:57:01;11,93;1010,41;1844;0;0
2022-05-23 06:58:02;11,86;1010,4;1850;0;0
2022-05-23 06:59:01;12,09;1010,35;1844;0;0
2022-05-23 07:00:01;12,04;1010,5;1831;0;0
2022-05-23 07:01:02;12,38;1010,54;1803;0;0
2022-05-23 07:02:01;12,34;1010,56;1792;0;0
2022-05-23 07:03:01;12,35;1010,43;1760;0;0
2022-05-23 07:04:01;12,41;1010,45;1726;0;0
2022-05-23 07:05:01;12,28;1010,48;1732;0;0
2022-05-23 07:06:01;12,33;1010,48;1740;0;0
2022-05-23 07:07:01;12,42;1010,47;1750;0;0
2022-05-23 07:08:01;12,51;1010,44;1841;0;0
2022-05-23 07:09:02;12,61;1010,47;1877;0;0
2022-05-23 07:10:01;12,61;1010,46;1891;0;0
2022-05-23 07:11:01;12,59;1010,48;1902;0;0
2022-05-23 07:12:01;12,84;1010,45;1908;0;0
2022-05-23 07:13:01;12,98;1010,43;1907;0;0
2022-05-23 07:14:01;13,03;1010,42;1910;0;0
2022-05-23 07:15:01;13,21;1010,35;1916;0;0
2022-05-23 07:16:01;13,37;1010,33;1913;0;0
2022-05-23 07:17:01;13,41;1010,27;1919;0;0
2022-05-23 07:18:01;13,57;1010,21;1932;0;0
2022-05-23 07:19:01;13,57;1010,15;1940;0;0
2022-05-23 07:20:01;13,62;1010,16;1954;0;0
2022-05-23 07:21:02;13,75;1010,14;1965;0;0
2022-05-23 07:22:01;13,99;1010,14;1976;0;0
2022-05-23 07:23:01;14,01;1010,12;1986;0;0
2022-05-23 07:24:01;14,16;1010,15;1980;0;0
2022-05-23 07:25:01;14,07;1010,14;1984;0;0
2022-05-23 07:26:01;14,22;1010,04;2003;0;0
2022-05-23 07:27:01;14,2;1009,98;2005;0;0
2022-05-23 07:28:01;14,4;1009,98;1996;0;0
2022-05-23 07:29:01;14,39;1009,97;1962;0;0
2022-05-23 07:30:01;14,38;1009,95;1980;0;0
2022-05-23 07:31:01;14,45;1009,93;2001;0;0
2022-05-23 07:32:01;14,5;1009,91;2016;0;0
2022-05-23 07:33:01;14,56;1009,89;2029;0;0
2022-05-23 07:34:01;14,84;1009,85;2032;0;0
2022-05-23 07:35:01;14,76;1009,84;2047;0;0
2022-05-23 07:36:01;14,77;1009,81;2060;0;0
2022-05-23 07:37:01;14,84;1009,82;2067;0;0
2022-05-23 07:38:01;15,09;1009,79;2074;0;0
2022-05-23 07:39:01;15,33;1009,81;2077;0;0
2022-05-23 07:40:01;15,12;1009,82;2056;0;0
2022-05-23 07:41:01;15,16;1009,82;2108;0;0
2022-05-23 07:42:01;15,37;1009,84;2138;0;0
2022-05-23 07:43:01;15,5;1009,82;2166;0;0
2022-05-23 07:44:01;15,54;1009,81;2184;0;0
2022-05-23 07:45:01;15,53;1009,77;2195;0;0
2022-05-23 07:46:01;15,84;1009,74;2208;0;0
2022-05-23 07:47:01;15,85;1009,78;2225;0;0
2022-05-23 07:48:01;15,87;1009,76;2238;0;0
2022-05-23 07:49:01;16,15;1009,73;2249;0;0
2022-05-23 07:50:01;15,93;1009,76;2258;0;0
2022-05-23 07:51:01;15,75;1009,74;2271;0;0
2022-05-23 07:52:01;15,89;1009,74;2284;0;0
2022-05-23 07:53:01;16,04;1009,73;2295;0;0
2022-05-23 07:54:01;16,29;1009,68;2309;0;0
2022-05-23 07:55:01;16,52;1009,64;2321;0;0
2022-05-23 07:56:01;16,43;1009,6;2326;0;0
2022-05-23 07:57:01;16,44;1009,57;2338;0;0
2022-05-23 07:58:01;16,72;1009,52;2335;0;0
2022-05-23 07:59:01;16,81;1009,45;2333;0;0
2022-05-23 08:00:01;16,97;1009,39;2352;0;0
2022-05-23 08:01:02;17,03;1009,46;2357;0;0
2022-05-23 08:02:01;17,16;1009,46;2361;0;0
2022-05-23 08:03:01;17,31;1009,44;2373;0;0
2022-05-23 08:04:01;17,06;1009,49;2375;0;0
2022-05-23 08:05:01;17,09;1009,44;2389;0;0
2022-05-23 08:06:01;17,09;1009,46;2405;0;0
2022-05-23 08:07:01;17,12;1009,39;2409;0;0
2022-05-23 08:08:01;17,24;1009,42;2406;0;0
2022-05-23 08:09:01;17,34;1009,46;2401;0;0
2022-05-23 08:10:01;17,71;1009,46;2398;0;0
2022-05-23 08:11:01;17,58;1009,5;2392;0;0
2022-05-23 08:12:01;17,72;1009,47;2380;0;0
2022-05-23 08:13:01;17,56;1009,47;2365;0;0
2022-05-23 08:14:01;17,46;1009,48;2355;0;0
2022-05-23 08:15:01;17,46;1009,53;2349;0;0
2022-05-23 08:16:01;17,33;1009,43;2340;0;0
2022-05-23 08:17:01;17,07;1009,4;2339;0;0
2022-05-23 08:18:01;16,9;1009,43;2339;0;0
2022-05-23 08:19:01;16,92;1009,47;2340;0;0
2022-05-23 08:20:01;16,88;1009,52;2342;0;0
2022-05-23 08:21:01;16,83;1009,44;2339;0;0
2022-05-23 08:22:01;16,83;1009,38;2333;0;0
2022-05-23 08:23:01;16,61;1009,4;2325;0;0
2022-05-23 08:24:01;16,43;1009,42;2322;0;0
2022-05-23 08:25:01;16,35;1009,4;2320;0;0
2022-05-23 08:26:01;16,22;1009,42;2321;0;0
2022-05-23 08:27:01;16,38;1009,46;2323;0;0
2022-05-23 08:28:01;16,36;1009,43;2329;0;0
2022-05-23 08:29:01;16,55;1009,51;2331;0;0
2022-05-23 08:30:01;16,37;1009,39;2335;0;0
2022-05-23 08:31:01;16,6;1009,42;2338;0;0
2022-05-23 08:32:01;16,58;1009,47;2339;0;0
2022-05-23 08:33:01;16,57;1009,44;2339;0;0
2022-05-23 08:34:02;16,73;1009,42;2340;0;0
2022-05-23 08:35:01;16,69;1009,43;2341;0;0
2022-05-23 08:36:01;16,84;1009,51;2344;0;0
2022-05-23 08:37:01;16,71;1009,46;2346;0;0
2022-05-23 08:38:01;16,9;1009,36;2351;0;0
2022-05-23 08:39:01;16,98;1009,32;2354;0;0
2022-05-23 08:40:01;16,9;1009,38;2360;0;0
2022-05-23 08:41:01;17,03;1009,34;2362;0;0
2022-05-23 08:42:01;17,08;1009,31;2362;0;0
2022-05-23 08:43:01;17;1009,16;2363;0;0
2022-05-23 08:44:01;16,89;1009,11;2361;0;0
2022-05-23 08:45:01;16,85;1009,06;2359;0;0
2022-05-23 08:46:01;16,68;1009,02;2355;0;0
2022-05-23 08:47:01;16,84;1009,05;2354;0;0
2022-05-23 08:48:01;17,06;1009,06;2353;0;0
2022-05-23 08:49:01;16,79;1009,08;2352;0;0
2022-05-23 08:50:02;16,84;1009,07;2348;0;0
2022-05-23 08:51:01;16,88;1009,03;2346;0;0
2022-05-23 08:52:01;16,97;1009,03;2347;0;0
2022-05-23 08:53:01;17,19;1009,05;2352;0;0
2022-05-23 08:54:01;17,11;1009,01;2354;0;0
2022-05-23 08:55:01;17,06;1008,96;2361;0;0
2022-05-23 08:56:02;16,97;1008,91;2366;0;0
2022-05-23 08:57:01;17,03;1008,95;2372;0;0
2022-05-23 08:58:01;16,96;1008,87;2378;0;0
2022-05-23 08:59:01;17,14;1008,85;2387;0;0
2022-05-23 09:00:01;17,15;1008,88;2393;0;0
2022-05-23 09:01:01;17,05;1008,87;2398;0;0
2022-05-23 09:02:01;17,02;1008,9;2402;0;0
2022-05-23 09:03:01;17,16;1008,85;2408;0;0
2022-05-23 09:04:01;17,2;1008,86;2410;0;0
2022-05-23 09:05:02;17,14;1008,85;2413;0;0
2022-05-23 09:06:01;17,54;1008,87;2411;0;0
2022-05-23 09:07:01;17,55;1008,86;2410;0;0
2022-05-23 09:08:01;17,61;1008,88;2411;0;0
2022-05-23 09:09:01;17,53;1008,84;2416;0;0
2022-05-23 09:10:01;17,61;1008,86;2418;0;0
2022-05-23 09:11:01;17,76;1008,87;2423;0;0
2022-05-23 09:12:01;17,52;1008,88;2426;0;0
2022-05-23 09:13:01;17,68;1008,89;2429;0;0
2022-05-23 09:14:01;17,8;1008,86;2433;0;0
2022-05-23 09:15:01;17,9;1008,83;2434;0;0
2022-05-23 09:16:01;17,7;1008,81;2436;0;0
2022-05-23 09:17:01;17,59;1008,83;2440;0;0
2022-05-23 09:18:01;17,59;1008,83;2441;0;0
2022-05-23 09:19:01;17,75;1008,81;2442;0;0
2022-05-23 09:20:01;17,88;1008,82;2443;0;0
2022-05-23 09:21:01;17,95;1008,8;2446;0;0
2022-05-23 09:22:01;17,95;1008,79;2447;0;0
2022-05-23 09:23:01;17,87;1008,81;2446;0;0
2022-05-23 09:24:02;17,95;1008,77;2446;0;0
2022-05-23 09:25:01;18,04;1008,77;2448;0;0
2022-05-23 09:26:01;18,18;1008,8;2444;0;0
2022-05-23 09:27:01;18,03;1008,79;2438;0;0
2022-05-23 09:28:01;18,02;1008,81;2434;0;0
2022-05-23 09:29:01;18,04;1008,82;2431;0;0
2022-05-23 09:30:01;18,1;1008,81;2433;0;0
2022-05-23 09:31:01;18,25;1008,77;2437;0;0
2022-05-23 09:32:01;18,08;1008,76;2441;0;0
2022-05-23 09:33:02;17,92;1008,75;2442;0;0
2022-05-23 09:34:01;18,21;1008,77;2446;0;0
2022-05-23 09:35:01;18,13;1008,78;2452;0;0
2022-05-23 09:36:01;18,18;1008,76;2457;0;0
2022-05-23 09:37:01;18,21;1008,76;2459;0;0
2022-05-23 09:38:01;18,13;1008,7;2461;0;0
2022-05-23 09:39:01;18,1;1008,71;2458;0;0
2022-05-23 09:40:01;18,2;1008,72;2458;0;0
2022-05-23 09:41:02;18,21;1008,69;2458;0;0
2022-05-23 09:42:01;18,22;1008,72;2456;0;0